Regional Weather Roundup
Issued by NWS Wilmington, NC

Home | Current Version | Previous Version | Text Only | Print | Product List | Glossary On
Versions: 1 2 3 4 5 6 7 8 9 10 11 12 13 14 15 16 17 18 19 20 21 22 23 24 25 26 27 28 29 30 31 32 33 34 35 36 37 38 39 40 41 42 43
000
ASUS42 KILM 252010
RWRILM
RWRILM
REGIONAL HOURLY WEATHER ROUNDUP
NATIONAL WEATHER SERVICE WILMINGTON NC
300 PM EST THU DEC 25 2014

NOTE: "FAIR" INDICATES FEW OR NO CLOUDS BELOW 12,000 FEET WITH NO
SIGNIFICANT WEATHER AND/OR OBSTRUCTIONS TO VISIBILITY.

...............WFO WILMINGTON COUNTY WARNING AREA...............

......COASTAL NC AND SC COUNTIES......

CITY           SKY/WX    TMP DP  RH WIND       PRES   REMARKS
WILMINGTON     SUNNY     61  43  51 W12       30.08R
SOUTHPORT      SUNNY     59  41  52 NW8       30.10R
N MYRTLE BEACH SUNNY     60  42  51 VRB7      30.10R
MYRTLE BEACH   SUNNY     61  43  51 NW12      30.11R

......INLAND NC AND SC COUNTIES.......

CITY           SKY/WX    TMP DP  RH WIND       PRES   REMARKS
LUMBERTON      SUNNY     61  41  47 NW10      30.09R
ELIZABETHTOWN  SUNNY     60  39  45 NW8       30.09R
WHITEVILLE     SUNNY     60  40  47 W5        30.09R
FLORENCE       SUNNY     61  39  44 NW9       30.11R
DARLINGTON     SUNNY     59  39  47 W6        30.12R

....................REST OF NORTH CAROLINA......................

.........EASTERN NC.........

CITY           SKY/WX    TMP DP  RH WIND       PRES   REMARKS
CAPE HATTERAS  PTSUNNY   57  44  62 NW6       30.05R
JACKSONVILLE   SUNNY     59  37  44 NW10G16   30.08R
MOREHEAD CITY  MOSUNNY   59  42  53 W15       30.06R
KENANSVILLE    SUNNY     60  36  40 W12G17    30.09R
NEW BERN       SUNNY     62  38  40 W13       30.07R
ELIZABETH CITY SUNNY     61  38  42 NW15      30.04R

.........CENTRAL NC.........

CITY           SKY/WX    TMP DP  RH WIND       PRES   REMARKS
RALEIGH DURHAM SUNNY     56  32  40 VRB6      30.09R
ROCKY MOUNT      N/A     58  33  39 W10       30.08R
ROANOKE RAPIDS NOT AVBL
FAYETTEVILLE   SUNNY     61  36  39 NW12      30.08R
HOFFMAN        SUNNY     59  37  43 W10       30.11R

.........WESTERN NC.........

CITY           SKY/WX    TMP DP  RH WIND       PRES   REMARKS
CHARLOTTE      MOSUNNY   56  31  38 W6        30.12R
GREENSBORO     SUNNY     53  31  42 NW12      30.10R
HICKORY        NOT AVBL
BOONE          NOT AVBL
ASHEVILLE      NOT AVBL

.....................REST OF SOUTH CAROLINA.....................

.........EASTERN SC.........

CITY           SKY/WX    TMP DP  RH WIND       PRES   REMARKS
CHARLESTON     MOSUNNY   60  38  43 NW5       30.13S
BEAUFORT MCAS  SUNNY     60  39  45 W9        30.15S
HILTON HEAD    SUNNY     57  39  51 SW7       30.16F

.........CENTRAL SC.........

CITY           SKY/WX    TMP DP  RH WIND       PRES   REMARKS
COLUMBIA       SUNNY     58  37  45 SW6       30.12S
ORANGEBURG     SUNNY     59  37  44 W7        30.13S
SUMTER SHAW    SUNNY     60  39  46 W8        30.11R

.........WESTERN SC.........

CITY           SKY/WX    TMP DP  RH WIND       PRES   REMARKS
GREENVILLE     NOT AVBL
ROCK HILL      SUNNY     56  35  45 MISG      30.12R
ANDERSON       SUNNY     54  31  41 W8        30.13R
CLEMSON        NOT AVBL
GREENWOOD      SUNNY     56  33  42 W7        30.14S


...................COASTAL AND OFFSHORE REPORTS..................

................LOCAL PIERS AND NC RESERVE................


STATION/POSITION TIME  SKY/WX   TEMP    WIND        PRES    VSBY
                                AIR SEA DIR/SP/G
                 (UTC)          (F)     (DEG/KT/KT) (MB)    (MI)
JOHNY MRCER PIER 2000            59 56  290/  8/ 12 1018.1R
NC RESRV MASNBRO 1900            58     280/  3     1018.0S
OCEAN CREST PIER 2000            55 55  210/ 14/ 16 1018.1R
SPRINGMAID  PIER 2000            58 53  260/  8/ 12 1019.7R


................COASTAL AND OFFSHORE BUOYS................


STATION/POSITION TIME  SKY/WX   TEMP    WIND        PRES    VSBY
                                AIR SEA DIR/SP/G
                 (UTC)          (F)     (DEG/KT/KT) (MB)    (MI)
DIMNDSHOAL 41025 2000            58                 1017.5R
WVE H/P(F/S)=  6/ 9

CAPE LOOKOUT     1900            56     260/  9/ 11 1017.1R
ONSLOW BAY 41036 2000            56 60  270/ 12/ 14 1018.8R
WVE H/P(F/S)=  6/ 9 WND WVE H/P(F/S)=  3/ 6 SWL H/P/D(F/S/D)=  5/180/ 9

5 WRITEBCH 41038 NOT AVBL
MASONBORO  41110 2000               54                N/A
WVE H/P(F/S)=  3/ 8 WND WVE H/P(F/S)=  3/ 8

WILM HARBR 41108 2000               57                N/A
WVE H/P(F/S)=  4/ 7 WND WVE H/P(F/S)=  3/ 7

27WRITEBCH 41037 NOT AVBL
FRYING PAN 41013 2000            57 71  290/ 14/ 17 1019.7R
WVE H/P(F/S)=  5/ 7 WND WVE H/P(F/S)=  3/ 6 SWL H/P/D(F/S/D)=  3/190/ 7

SUNST NRSH 41024 1900            58     270/  4/  6   N/A
CAPRS NRSH 41029 1900            54     250/ 12/ 12   N/A
EDISTO     41004 2000            56 71  290/ 14/ 17 1020.0R
WVE H/P(F/S)=  4/ 6 WND WVE H/P(F/S)=  3/ 6 SWL H/P/D(F/S/D)=  2/ 8



..........OFFSHORE BUOYS BEYOND 100 NM OFFSHORE...........
.....IN A TRIANGLE---HAT TO BERMUDA TO BAHAMAS TO HAT.....


STATION/POSITION TIME  SKY/WX   TEMP    WIND        PRES    VSBY
                                AIR SEA DIR/SP/G
                 (UTC)          (F)     (DEG/KT/KT) (MB)    (MI)
150E HAT   41001 NOT AVBL
W BERMUDA  41048 1907            74 73  220/ 19/ 23 1017.2R
WVE H/P(F/S)=  5/ 5 WND WVE H/P(F/S)=  5/ 5 SWL H/P/D(F/S/D)=  2/ 80/10

ATLANTIC S 41049 1928            74 77  110/  6/  8 1020.8F
WVE H/P(F/S)=  5/ 8 WND WVE H/P(F/S)=  2/ 4 SWL H/P/D(F/S/D)=  5/ 50/ 8

E BAHAMAS  41046 1949            78 80   80/ 10/ 12 1019.9R
WVE H/P(F/S)=  4/ 9 WND WVE H/P(F/S)=  2/ 4 SWL H/P/D(F/S/D)=  3/ 80/ 9

NE BAHAMAS 41047 1903            78 78  230/ 12/ 14 1020.5
WVE H/P(F/S)=  4/ 9 WND WVE H/P(F/S)=  3/ 4 SWL H/P/D(F/S/D)=  3/100/ 9

120E CANVRL41010 2000            69 76  340/ 14/ 17 1020.8R
WVE H/P(F/S)=  6/ 6 WND WVE H/P(F/S)=  3/ 6 SWL H/P/D(F/S/D)=  3/320/ 7


END


USA.gov is the U.S. government's official web portal to all federal, state and local government web resources and services.